Regional Weather Roundup
Issued by NWS State College, PA

Home | Current Version | Previous Version | Text Only | Print | Product List | Glossary On
Versions: 1 2 3 4 5 6 7 8 9 10 11 12 13 14 15 16 17 18 19 20 21 22 23 24 25 26 27 28 29 30 31 32 33 34 35 36 37 38 39 40 41 42 43 44 45 46 47 48 49 50
000
ASUS41 KCTP 020310
RWRCTP

REGIONAL WEATHER ROUNDUP
NATIONAL WEATHER SERVICE STATE COLLEGE PA
1100 PM EDT SUN MAY 01 2016

Note: "fair" indicates few or no clouds below 12,000 feet with no
significant weather and/or obstructions to visibility.

* = STATION THAT DOES NOT REPORT PRECIPITATION /E.G. RAIN...SNOW...ETC/
    THUNDER OR FOG.

PAZ002>004-007>009-013>016-020>023-029>032-020400-
WESTERN PENNSYLVANIA

CITY           SKY/WX    TMP DP  RH WIND       PRES   REMARKS
ERIE           CLOUDY    45  44  97 NE12      30.01S FOG
MEADVILLE        N/A    N/A N/A N/A MISG      29.97F
FRANKLIN*      MOCLDY    52  48  87 CALM      29.99S
NEW CASTLE     CLOUDY    55  52  89 N6        29.96F
BEAVER COUNTY  NOT AVBL
BUTLER*        CLOUDY    57  54  88 N3        29.97F
PITTSBURGH INT CLOUDY    60  54  80 NW3       29.92F
PITTSBURGH     CLOUDY    59  54  83 S3        29.91F
INDIANA*       CLEAR     59  57  94 CALM      29.98S
LATROBE        CLOUDY    57  57 100 CALM      29.95S FOG
WASHINGTON CO* CLOUDY    55  54  94 CALM      29.92F
$$

PAZ004>006-010>012-017>019-024>028-033>037-041-042-045-046-049>053-020400-
CENTRAL PENNSYLVANIA

CITY           SKY/WX    TMP DP  RH WIND       PRES   REMARKS
BRADFORD       CLOUDY    54  50  86 CALM      29.97F
DUBOIS         CLOUDY    54  53  97 NE5       29.95F FOG
CLEARFIELD     CLOUDY    53  51  93 E5        29.98S FOG
JOHNSTOWN      PTCLDY    54  50  86 SE3       29.97F
ALTOONA        CLOUDY    54  52  93 S8        30.00S
STATE COLLEGE  CLOUDY    50  49  96 CALM      30.00S
WILLIAMSPORT   CLOUDY    50  46  86 E8        30.02F FOG
SELINSGROVE    CLOUDY    50  48  93 N3        30.04S
FT INDIANTOWN  CLOUDY    49  49 100 E3        30.05R FOG
CAPITAL CITY   CLOUDY    53  50  89 E7        30.03F FOG
HARRISBURG     DRIZZLE   52  50  93 E7        30.02F FOG
YORK           CLOUDY    53  51  93 CALM      30.03S
$$

PAZ038>040-043-044-047-048-054-055-060>062-067>071-020400-
EASTERN PENNSYLVANIA

CITY           SKY/WX    TMP DP  RH WIND       PRES   REMARKS
SCRANTON       CLOUDY    49  45  86 CALM      30.04S
MOUNT POCONO   FOG       42  41  96 SE6       30.04S VSB 1/4
ALLENTOWN      CLOUDY    48  46  93 E7        30.06F
QUAKERTOWN*    CLOUDY    46  46 100 E7        30.07S
READING        CLOUDY    50  48  93 E3        30.06R FOG
LANCASTER      CLOUDY    50  50 100 E6        30.04F FOG
COATESVILLE    FOG       50  50 100 E7        30.06S VSB 3/4
POTTSTOWN      CLOUDY    48  48 100 VRB3      30.08R FOG
BLUE BELL      CLOUDY    46  46 100 E5        30.06S
DOYLESTOWN     CLOUDY    46  46 100 VRB3      30.06S FOG
WILLOW GROVE   NOT AVBL
NORTH PHILA    CLOUDY    50  47  89 E7        30.08F FOG
PHILADELPHIA   CLOUDY    51  48  89 E7        30.07F
$$




USA.gov is the U.S. government's official web portal to all federal, state and local government web resources and services.